Location: Skanderborg
(56.0313°N, 9.9317°E)
Time: 00:08:31
(UTC+00:00)

SL-16 R/B - Pass Details

Date: 15 August 2020
Orbit: 840 x 849 km, 71.0° (Epoch: 23 September)

Event Time Altitude Azimuth Distance (km) Brightness Sun altitude
Rises 20:20:53 0° 312° (NW) 3,424 7.7 -10.4°
Reaches altitude 10° 20:24:00 10° 329° (NNW) 2,488 6.1 -10.7°
Maximum altitude 20:28:14 21° 17° (NNE) 1,837 4.3 -11.2°
Drops below altitude 10° 20:32:28 10° 65° (ENE) 2,483 4.5 -11.6°
Sets 20:35:34 0° 82° (E) 3,416 5.0 -11.9°
